TimeEET,TemperatureF,Dew PointF,Humidity,Sea Level PressureIn,VisibilityMPH,Wind Direction,Wind SpeedMPH,Gust SpeedMPH,PrecipitationIn,Events,Conditions,WindDirDegrees,DateUTC
7:50 AM,44.6,30.2,57,30.27,6.2,ENE,20.7,-,N/A,,Mostly Cloudy,60,2012-12-30 05:50:00
8:20 AM,44.6,30.2,57,30.27,6.2,ENE,19.6,-,N/A,,Mostly Cloudy,60,2012-12-30 06:20:00
8:50 AM,44.6,30.2,57,30.27,6.2,ENE,16.1,-,N/A,,Mostly Cloudy,70,2012-12-30 06:50:00
9:20 AM,44.6,30.2,57,30.27,6.2,East,15.0,-,N/A,,Mostly Cloudy,80,2012-12-30 07:20:00
9:50 AM,44.6,30.2,57,30.27,6.2,East,15.0,-,N/A,,Mostly Cloudy,80,2012-12-30 07:50:00
10:20 AM,44.6,30.2,57,30.27,6.2,East,17.3,-,N/A,,Mostly Cloudy,80,2012-12-30 08:20:00
10:50 AM,44.6,30.2,57,30.30,6.2,East,19.6,-,N/A,,Mostly Cloudy,80,2012-12-30 08:50:00
11:20 AM,44.6,30.2,57,30.30,6.2,ENE,20.7,-,N/A,,Mostly Cloudy,70,2012-12-30 09:20:00
11:50 AM,44.6,30.2,57,30.30,6.2,ENE,18.4,-,N/A,,Mostly Cloudy,70,2012-12-30 09:50:00
12:20 PM,46.4,30.2,53,30.30,6.2,ENE,19.6,-,N/A,,Mostly Cloudy,70,2012-12-30 10:20:00
12:50 PM,46.4,30.2,53,30.27,6.2,ENE,17.3,-,N/A,,Mostly Cloudy,60,2012-12-30 10:50:00
1:20 PM,46.4,30.2,53,30.27,6.2,ENE,12.7,-,N/A,,Mostly Cloudy,60,2012-12-30 11:20:00
1:50 PM,48.2,33.8,58,30.27,6.2,ENE,11.5,-,N/A,,Mostly Cloudy,60,2012-12-30 11:50:00
2:20 PM,48.2,33.8,58,30.24,6.2,East,10.4,-,N/A,,Mostly Cloudy,90,2012-12-30 12:20:00
2:50 PM,50.0,33.8,54,30.24,6.2,ENE,15.0,-,N/A,,Mostly Cloudy,70,2012-12-30 12:50:00
3:20 PM,48.2,33.8,58,30.24,6.2,ENE,19.6,-,N/A,,Mostly Cloudy,70,2012-12-30 13:20:00
3:50 PM,48.2,33.8,58,30.24,6.2,East,16.1,-,N/A,,Scattered Clouds,80,2012-12-30 13:50:00
4:20 PM,46.4,33.8,62,30.24,6.2,East,16.1,-,N/A,,Scattered Clouds,80,2012-12-30 14:20:00
4:50 PM,46.4,33.8,62,30.24,6.2,ENE,9.2,-,N/A,,Scattered Clouds,70,2012-12-30 14:50:00
5:20 PM,46.4,33.8,62,30.24,6.2,ENE,9.2,-,N/A,,Scattered Clouds,70,2012-12-30 15:20:00
5:50 PM,44.6,32.0,61,30.24,6.2,ENE,8.1,-,N/A,,Scattered Clouds,60,2012-12-30 15:50:00
6:20 PM,44.6,32.0,61,30.27,6.2,NE,10.4,-,N/A,,Scattered Clouds,50,2012-12-30 16:20:00
6:50 PM,42.8,32.0,66,30.27,6.2,ENE,9.2,-,N/A,,Scattered Clouds,60,2012-12-30 16:50:00
7:20 PM,42.8,32.0,66,30.27,6.2,NE,5.8,-,N/A,,Scattered Clouds,50,2012-12-30 17:20:00
7:50 PM,39.2,28.4,65,30.27,6.2,NNE,5.8,-,N/A,,Partly Cloudy,30,2012-12-30 17:50:00